{"data":{"norad_id":28190,"epoch":"2026-09-19T21:04:50.176128Z","epoch_age_seconds":68145,"freshness":"FRESH","line1":"1 28190U 04009A   26262.87835852  .00000023  00000+0  00000+0 0  9990","line2":"2 28190  54.7575 271.8529 0118156 176.6687   7.0371  2.00573613164840","mean_motion":2.00573613,"eccentricity":0.0118156,"inclination_deg":54.7575,"raan_deg":271.8529,"arg_perigee_deg":176.6687,"mean_anomaly_deg":7.0371,"bstar":0,"rev_number":16484,"period_min":717.94089883598,"perigee_km":19867.51119747,"apogee_km":20495.143207937,"semimajor_km":26559.464202704,"source":"CELESTRAK","updated_at":"2026-09-20T09:00:46.084651Z"}}